Information on these data can be found in provided Readme document
Contact Info: Zachary Fasnacht (zachary.fasnacht@ssaihq.com); Nickolay Krotkov (nickolay.a.krotkov@nasa.gov); Lok Lamsal (lok.lamsal@nasa.gov)

FillValue: -999.
ScaleFactor: 1e15
Units: molecules/cm^2

Date(yyyy-mm-dd),City,Country,LonCenter,LatCenter,BoundingCoordinates,Median,Q1,Q3,Mean,Baseline_Median,Baseline_Q1,Baseline_Q3,Baseline_Mean,NumGoodSamples,NumTotalSamples
2015-01-01,Banjul,Gambia,-16.579,13.4549,[-17.079 12.9549 -16.079 13.9549],0.557,0.168,1.39,0.753,0.715,0.243,1.309,0.786,223.0,535.0
2015-01-02,Banjul,Gambia,-16.579,13.4549,[-17.079 12.9549 -16.079 13.9549],0.57,0.138,1.47,0.787,0.723,0.233,1.327,0.796,193.0,551.0
2015-01-03,Banjul,Gambia,-16.579,13.4549,[-17.079 12.9549 -16.079 13.9549],0.57,0.138,1.47,0.787,0.768,0.215,1.363,0.811,193.0,533.0
2015-01-04,Banjul,Gambia,-16.579,13.4549,[-17.079 12.9549 -16.079 13.9549],0.557,0.099,1.738,0.827,0.829,0.248,1.445,0.858,174.0,559.0
2015-01-05,Banjul,Gambia,-16.579,13.4549,[-17.079 12.9549 -16.079 13.9549],0.833,0.129,1.763,0.914,0.872,0.239,1.487,0.875,149.0,543.0
2015-01-06,Banjul,Gambia,-16.579,13.4549,[-17.079 12.9549 -16.079 13.9549],0.834,0.129,1.784,0.928,0.943,0.315,1.548,0.933,165.0,553.0
2015-01-07,Banjul,Gambia,-16.579,13.4549,[-17.079 12.9549 -16.079 13.9549],0.977,0.201,1.878,1.028,0.971,0.294,1.564,0.937,139.0,551.0
2015-01-08,Banjul,Gambia,-16.579,13.4549,[-17.079 12.9549 -16.079 13.9549],1.057,0.201,1.905,1.045,0.977,0.291,1.545,0.937,151.0,541.0
2015-01-09,Banjul,Gambia,-16.579,13.4549,[-17.079 12.9549 -16.079 13.9549],0.926,0.168,1.833,0.926,0.983,0.296,1.545,0.942,145.0,517.0
2015-01-10,Banjul,Gambia,-16.579,13.4549,[-17.079 12.9549 -16.079 13.9549],0.926,0.168,1.833,0.926,0.988,0.332,1.552,0.965,145.0,464.0
2015-01-11,Banjul,Gambia,-16.579,13.4549,[-17.079 12.9549 -16.079 13.9549],0.758,0.003,1.763,0.833,0.976,0.346,1.579,0.958,120.0,486.0
2015-01-12,Banjul,Gambia,-16.579,13.4549,[-17.079 12.9549 -16.079 13.9549],1.093,0.48,1.611,1.09,0.962,0.301,1.501,0.941,116.0,472.0
2015-01-13,Banjul,Gambia,-16.579,13.4549,[-17.079 12.9549 -16.079 13.9549],1.106,0.58,1.611,1.122,0.97,0.299,1.524,0.953,127.0,489.0
2015-01-14,Banjul,Gambia,-16.579,13.4549,[-17.079 12.9549 -16.079 13.9549],1.106,0.437,1.777,1.1,0.957,0.333,1.514,0.946,127.0,485.0
2015-01-15,Banjul,Gambia,-16.579,13.4549,[-17.079 12.9549 -16.079 13.9549],1.106,0.437,1.777,1.1,1.009,0.384,1.615,1.02,127.0,485.0
2015-01-16,Banjul,Gambia,-16.579,13.4549,[-17.079 12.9549 -16.079 13.9549],1.118,0.444,1.777,1.118,0.994,0.334,1.644,0.999,126.0,495.0
2015-01-17,Banjul,Gambia,-16.579,13.4549,[-17.079 12.9549 -16.079 13.9549],1.106,0.444,1.8,1.154,1.0,0.367,1.646,1.014,147.0,471.0
2015-01-18,Banjul,Gambia,-16.579,13.4549,[-17.079 12.9549 -16.079 13.9549],1.106,0.444,1.8,1.154,0.987,0.358,1.642,1.006,147.0,486.0
2015-01-19,Banjul,Gambia,-16.579,13.4549,[-17.079 12.9549 -16.079 13.9549],1.028,0.396,1.721,1.088,0.969,0.333,1.625,0.997,177.0,466.0
2015-01-20,Banjul,Gambia,-16.579,13.4549,[-17.079 12.9549 -16.079 13.9549],1.054,0.437,1.771,1.118,0.968,0.366,1.628,1.006,170.0,494.0
2015-01-21,Banjul,Gambia,-16.579,13.4549,[-17.079 12.9549 -16.079 13.9549],0.973,0.386,1.721,1.062,0.933,0.326,1.609,0.987,169.0,480.0
2015-01-22,Banjul,Gambia,-16.579,13.4549,[-17.079 12.9549 -16.079 13.9549],0.979,0.386,1.721,1.096,0.956,0.381,1.584,1.023,196.0,490.0
2015-01-23,Banjul,Gambia,-16.579,13.4549,[-17.079 12.9549 -16.079 13.9549],0.979,0.386,1.611,1.087,0.981,0.368,1.592,1.031,184.0,488.0
2015-01-24,Banjul,Gambia,-16.579,13.4549,[-17.079 12.9549 -16.079 13.9549],0.944,0.377,1.605,1.032,0.951,0.357,1.572,0.996,210.0,520.0
2015-01-25,Banjul,Gambia,-16.579,13.4549,[-17.079 12.9549 -16.079 13.9549],0.944,0.377,1.605,1.032,0.945,0.372,1.561,0.983,210.0,561.0
2015-01-26,Banjul,Gambia,-16.579,13.4549,[-17.079 12.9549 -16.079 13.9549],0.97,0.379,1.605,1.045,0.974,0.359,1.583,0.994,215.0,529.0
2015-01-27,Banjul,Gambia,-16.579,13.4549,[-17.079 12.9549 -16.079 13.9549],0.744,0.329,1.589,0.954,0.948,0.328,1.575,0.977,184.0,549.0
2015-01-28,Banjul,Gambia,-16.579,13.4549,[-17.079 12.9549 -16.079 13.9549],0.765,0.331,1.338,0.942,0.945,0.331,1.511,0.965,180.0,535.0
2015-01-29,Banjul,Gambia,-16.579,13.4549,[-17.079 12.9549 -16.079 13.9549],0.849,0.372,1.338,0.987,0.98,0.33,1.526,0.984,188.0,551.0
2015-01-30,Banjul,Gambia,-16.579,13.4549,[-17.079 12.9549 -16.079 13.9549],0.849,0.372,1.338,0.993,0.927,0.291,1.413,0.918,212.0,546.0
2015-01-31,Banjul,Gambia,-16.579,13.4549,[-17.079 12.9549 -16.079 13.9549],0.849,0.371,1.338,0.969,0.943,0.345,1.427,0.94,239.0,548.0
2015-02-01,Banjul,Gambia,-16.579,13.4549,[-17.079 12.9549 -16.079 13.9549],0.765,0.339,1.292,0.929,0.885,0.283,1.399,0.915,218.0,553.0
2015-02-02,Banjul,Gambia,-16.579,13.4549,[-17.079 12.9549 -16.079 13.9549],0.849,0.371,1.324,0.953,0.901,0.301,1.425,0.932,239.0,530.0
2015-02-03,Banjul,Gambia,-16.579,13.4549,[-17.079 12.9549 -16.079 13.9549],0.952,0.372,1.338,0.969,0.885,0.288,1.417,0.925,209.0,546.0
2015-02-04,Banjul,Gambia,-16.579,13.4549,[-17.079 12.9549 -16.079 13.9549],0.952,0.339,1.338,0.939,0.852,0.249,1.416,0.893,239.0,528.0
2015-02-05,Banjul,Gambia,-16.579,13.4549,[-17.079 12.9549 -16.079 13.9549],0.988,0.348,1.38,0.967,0.822,0.228,1.396,0.87,224.0,556.0
2015-02-06,Banjul,Gambia,-16.579,13.4549,[-17.079 12.9549 -16.079 13.9549],0.988,0.398,1.425,0.947,0.793,0.209,1.395,0.85,215.0,542.0
2015-02-07,Banjul,Gambia,-16.579,13.4549,[-17.079 12.9549 -16.079 13.9549],0.987,0.398,1.43,0.953,0.803,0.239,1.426,0.875,248.0,552.0
2015-02-08,Banjul,Gambia,-16.579,13.4549,[-17.079 12.9549 -16.079 13.9549],1.02,0.45,1.468,0.994,0.849,0.258,1.468,0.928,222.0,548.0
2015-02-09,Banjul,Gambia,-16.579,13.4549,[-17.079 12.9549 -16.079 13.9549],1.001,0.43,1.442,0.99,0.898,0.307,1.465,0.948,249.0,538.0
2015-02-10,Banjul,Gambia,-16.579,13.4549,[-17.079 12.9549 -16.079 13.9549],0.988,0.416,1.468,0.976,0.89,0.301,1.436,0.936,244.0,514.0
2015-02-11,Banjul,Gambia,-16.579,13.4549,[-17.079 12.9549 -16.079 13.9549],0.988,0.416,1.468,0.976,0.937,0.312,1.502,0.955,244.0,461.0
2015-02-12,Banjul,Gambia,-16.579,13.4549,[-17.079 12.9549 -16.079 13.9549],0.993,0.416,1.551,0.981,0.931,0.307,1.55,0.959,213.0,481.0
2015-02-13,Banjul,Gambia,-16.579,13.4549,[-17.079 12.9549 -16.079 13.9549],0.913,0.275,1.515,0.885,0.915,0.285,1.516,0.933,196.0,468.0
2015-02-14,Banjul,Gambia,-16.579,13.4549,[-17.079 12.9549 -16.079 13.9549],0.898,0.211,1.515,0.866,0.898,0.261,1.519,0.919,206.0,486.0
2015-02-15,Banjul,Gambia,-16.579,13.4549,[-17.079 12.9549 -16.079 13.9549],0.917,0.262,1.517,0.895,0.86,0.248,1.471,0.889,204.0,479.0
2015-02-16,Banjul,Gambia,-16.579,13.4549,[-17.079 12.9549 -16.079 13.9549],0.913,0.211,1.515,0.881,0.89,0.245,1.467,0.892,231.0,483.0
2015-02-17,Banjul,Gambia,-16.579,13.4549,[-17.079 12.9549 -16.079 13.9549],0.825,0.175,1.43,0.826,0.883,0.229,1.449,0.876,238.0,492.0
2015-02-18,Banjul,Gambia,-16.579,13.4549,[-17.079 12.9549 -16.079 13.9549],0.805,0.183,1.357,0.784,0.848,0.235,1.415,0.86,258.0,468.0
2015-02-19,Banjul,Gambia,-16.579,13.4549,[-17.079 12.9549 -16.079 13.9549],0.712,0.183,1.357,0.778,0.843,0.238,1.423,0.875,228.0,484.0
2015-02-20,Banjul,Gambia,-16.579,13.4549,[-17.079 12.9549 -16.079 13.9549],0.652,0.164,1.315,0.731,0.868,0.266,1.463,0.893,258.0,465.0
2015-02-21,Banjul,Gambia,-16.579,13.4549,[-17.079 12.9549 -16.079 13.9549],0.628,0.145,1.238,0.683,0.883,0.301,1.445,0.889,247.0,494.0
2015-02-22,Banjul,Gambia,-16.579,13.4549,[-17.079 12.9549 -16.079 13.9549],0.611,0.134,1.12,0.633,0.861,0.274,1.407,0.862,231.0,479.0
2015-02-23,Banjul,Gambia,-16.579,13.4549,[-17.079 12.9549 -16.079 13.9549],0.611,0.127,1.118,0.621,0.843,0.274,1.414,0.841,264.0,490.0
2015-02-24,Banjul,Gambia,-16.579,13.4549,[-17.079 12.9549 -16.079 13.9549],0.593,0.128,1.094,0.599,0.792,0.209,1.388,0.795,250.0,488.0
2015-02-25,Banjul,Gambia,-16.579,13.4549,[-17.079 12.9549 -16.079 13.9549],0.582,0.125,1.063,0.584,0.751,0.159,1.322,0.766,275.0,519.0
2015-02-26,Banjul,Gambia,-16.579,13.4549,[-17.079 12.9549 -16.079 13.9549],0.611,0.128,1.119,0.615,0.751,0.153,1.32,0.764,293.0,560.0
2015-02-27,Banjul,Gambia,-16.579,13.4549,[-17.079 12.9549 -16.079 13.9549],0.628,0.132,1.141,0.63,0.735,0.146,1.286,0.744,311.0,532.0
2015-02-28,Banjul,Gambia,-16.579,13.4549,[-17.079 12.9549 -16.079 13.9549],0.628,0.134,1.148,0.657,0.736,0.139,1.284,0.753,295.0,552.0
2015-03-01,Banjul,Gambia,-16.579,13.4549,[-17.079 12.9549 -16.079 13.9549],0.645,0.139,1.18,0.671,0.707,0.176,1.291,0.749,291.0,536.0
2015-03-02,Banjul,Gambia,-16.579,13.4549,[-17.079 12.9549 -16.079 13.9549],0.633,0.144,1.139,0.657,0.729,0.189,1.285,0.762,301.0,553.0
2015-03-03,Banjul,Gambia,-16.579,13.4549,[-17.079 12.9549 -16.079 13.9549],0.628,0.147,1.139,0.641,0.716,0.198,1.251,0.751,288.0,548.0
2015-03-04,Banjul,Gambia,-16.579,13.4549,[-17.079 12.9549 -16.079 13.9549],0.582,0.134,1.156,0.653,0.723,0.202,1.26,0.757,286.0,549.0
2015-03-05,Banjul,Gambia,-16.579,13.4549,[-17.079 12.9549 -16.079 13.9549],0.593,0.134,1.211,0.689,0.725,0.2,1.26,0.763,294.0,558.0
2015-03-06,Banjul,Gambia,-16.579,13.4549,[-17.079 12.9549 -16.079 13.9549],0.55,0.061,1.143,0.612,0.725,0.197,1.247,0.745,313.0,534.0
2015-03-07,Banjul,Gambia,-16.579,13.4549,[-17.079 12.9549 -16.079 13.9549],0.55,0.016,1.156,0.627,0.723,0.183,1.229,0.735,283.0,549.0
2015-03-08,Banjul,Gambia,-16.579,13.4549,[-17.079 12.9549 -16.079 13.9549],0.645,0.016,1.258,0.699,0.722,0.162,1.252,0.741,306.0,529.0
2015-03-09,Banjul,Gambia,-16.579,13.4549,[-17.079 12.9549 -16.079 13.9549],0.645,-0.017,1.283,0.716,0.719,0.156,1.259,0.742,297.0,557.0
2015-03-10,Banjul,Gambia,-16.579,13.4549,[-17.079 12.9549 -16.079 13.9549],0.67,0.065,1.302,0.765,0.737,0.186,1.258,0.751,283.0,542.0
2015-03-11,Banjul,Gambia,-16.579,13.4549,[-17.079 12.9549 -16.079 13.9549],0.65,0.065,1.302,0.763,0.731,0.195,1.251,0.757,272.0,553.0
2015-03-12,Banjul,Gambia,-16.579,13.4549,[-17.079 12.9549 -16.079 13.9549],0.719,0.129,1.315,0.796,0.765,0.237,1.273,0.791,263.0,550.0
2015-03-13,Banjul,Gambia,-16.579,13.4549,[-17.079 12.9549 -16.079 13.9549],0.645,0.041,1.302,0.738,0.744,0.214,1.276,0.778,271.0,540.0
2015-03-14,Banjul,Gambia,-16.579,13.4549,[-17.079 12.9549 -16.079 13.9549],0.636,0.037,1.302,0.734,0.742,0.213,1.283,0.786,253.0,515.0
2015-03-15,Banjul,Gambia,-16.579,13.4549,[-17.079 12.9549 -16.079 13.9549],0.636,0.037,1.302,0.734,0.74,0.211,1.301,0.788,253.0,462.0
2015-03-16,Banjul,Gambia,-16.579,13.4549,[-17.079 12.9549 -16.079 13.9549],0.525,-0.018,1.302,0.716,0.73,0.217,1.31,0.803,223.0,483.0
2015-03-17,Banjul,Gambia,-16.579,13.4549,[-17.079 12.9549 -16.079 13.9549],0.627,-0.0,1.183,0.713,0.722,0.202,1.276,0.785,218.0,469.0
2015-03-18,Banjul,Gambia,-16.579,13.4549,[-17.079 12.9549 -16.079 13.9549],0.663,0.041,1.231,0.73,0.711,0.207,1.289,0.78,237.0,485.0
2015-03-19,Banjul,Gambia,-16.579,13.4549,[-17.079 12.9549 -16.079 13.9549],0.759,0.093,1.302,0.736,0.707,0.212,1.276,0.762,235.0,478.0
2015-03-20,Banjul,Gambia,-16.579,13.4549,[-17.079 12.9549 -16.079 13.9549],0.783,0.116,1.309,0.743,0.731,0.232,1.298,0.775,233.0,478.0
2015-03-21,Banjul,Gambia,-16.579,13.4549,[-17.079 12.9549 -16.079 13.9549],0.831,0.337,1.37,0.846,0.735,0.277,1.297,0.794,245.0,486.0
2015-03-22,Banjul,Gambia,-16.579,13.4549,[-17.079 12.9549 -16.079 13.9549],0.831,0.337,1.319,0.836,0.747,0.285,1.308,0.801,265.0,461.0
2015-03-23,Banjul,Gambia,-16.579,13.4549,[-17.079 12.9549 -16.079 13.9549],0.786,0.357,1.253,0.777,0.719,0.257,1.276,0.762,235.0,475.0
2015-03-24,Banjul,Gambia,-16.579,13.4549,[-17.079 12.9549 -16.079 13.9549],0.742,0.302,1.172,0.727,0.723,0.244,1.258,0.753,258.0,457.0
2015-03-25,Banjul,Gambia,-16.579,13.4549,[-17.079 12.9549 -16.079 13.9549],0.735,0.258,1.16,0.684,0.69,0.228,1.226,0.722,249.0,484.0
2015-03-26,Banjul,Gambia,-16.579,13.4549,[-17.079 12.9549 -16.079 13.9549],0.646,0.252,1.132,0.658,0.678,0.229,1.227,0.722,266.0,464.0
2015-03-27,Banjul,Gambia,-16.579,13.4549,[-17.079 12.9549 -16.079 13.9549],0.644,0.252,1.071,0.646,0.647,0.226,1.178,0.695,281.0,476.0
2015-03-28,Banjul,Gambia,-16.579,13.4549,[-17.079 12.9549 -16.079 13.9549],0.651,0.258,1.071,0.675,0.625,0.224,1.168,0.686,273.0,475.0
2015-03-29,Banjul,Gambia,-16.579,13.4549,[-17.079 12.9549 -16.079 13.9549],0.644,0.258,1.051,0.668,0.63,0.219,1.143,0.673,301.0,506.0
2015-03-30,Banjul,Gambia,-16.579,13.4549,[-17.079 12.9549 -16.079 13.9549],0.644,0.258,1.049,0.665,0.628,0.201,1.105,0.659,319.0,550.0
2015-03-31,Banjul,Gambia,-16.579,13.4549,[-17.079 12.9549 -16.079 13.9549],0.621,0.218,1.0,0.639,0.617,0.18,1.053,0.637,337.0,519.0
2015-04-01,Banjul,Gambia,-16.579,13.4549,[-17.079 12.9549 -16.079 13.9549],0.576,0.193,0.939,0.619,0.598,0.166,1.012,0.624,307.0,538.0
2015-04-02,Banjul,Gambia,-16.579,13.4549,[-17.079 12.9549 -16.079 13.9549],0.615,0.252,0.932,0.637,0.605,0.184,1.008,0.622,305.0,525.0
2015-04-03,Banjul,Gambia,-16.579,13.4549,[-17.079 12.9549 -16.079 13.9549],0.59,0.238,0.915,0.615,0.59,0.167,0.987,0.607,317.0,544.0
2015-04-04,Banjul,Gambia,-16.579,13.4549,[-17.079 12.9549 -16.079 13.9549],0.585,0.225,0.886,0.584,0.575,0.15,0.94,0.578,314.0,537.0
2015-04-05,Banjul,Gambia,-16.579,13.4549,[-17.079 12.9549 -16.079 13.9549],0.567,0.203,0.874,0.558,0.569,0.143,0.947,0.566,309.0,536.0
2015-04-06,Banjul,Gambia,-16.579,13.4549,[-17.079 12.9549 -16.079 13.9549],0.567,0.197,0.861,0.566,0.558,0.141,0.896,0.546,320.0,551.0
2015-04-07,Banjul,Gambia,-16.579,13.4549,[-17.079 12.9549 -16.079 13.9549],0.576,0.224,0.849,0.569,0.584,0.185,0.916,0.574,338.0,527.0
2015-04-08,Banjul,Gambia,-16.579,13.4549,[-17.079 12.9549 -16.079 13.9549],0.576,0.225,0.861,0.582,0.577,0.183,0.905,0.564,307.0,542.0
2015-04-09,Banjul,Gambia,-16.579,13.4549,[-17.079 12.9549 -16.079 13.9549],0.529,0.199,0.807,0.552,0.578,0.173,0.903,0.562,327.0,525.0
2015-04-10,Banjul,Gambia,-16.579,13.4549,[-17.079 12.9549 -16.079 13.9549],0.552,0.218,0.826,0.565,0.574,0.166,0.9,0.557,316.0,559.0
2015-04-11,Banjul,Gambia,-16.579,13.4549,[-17.079 12.9549 -16.079 13.9549],0.542,0.218,0.821,0.551,0.564,0.178,0.901,0.556,304.0,542.0
2015-04-12,Banjul,Gambia,-16.579,13.4549,[-17.079 12.9549 -16.079 13.9549],0.524,0.216,0.807,0.539,0.55,0.171,0.906,0.55,319.0,551.0
2015-04-13,Banjul,Gambia,-16.579,13.4549,[-17.079 12.9549 -16.079 13.9549],0.542,0.21,0.807,0.543,0.542,0.176,0.891,0.542,306.0,550.0
2015-04-14,Banjul,Gambia,-16.579,13.4549,[-17.079 12.9549 -16.079 13.9549],0.522,0.209,0.807,0.543,0.546,0.189,0.922,0.561,314.0,537.0
2015-04-15,Banjul,Gambia,-16.579,13.4549,[-17.079 12.9549 -16.079 13.9549],0.542,0.222,0.85,0.56,0.549,0.206,0.951,0.569,296.0,515.0
2015-04-16,Banjul,Gambia,-16.579,13.4549,[-17.079 12.9549 -16.079 13.9549],0.542,0.222,0.85,0.56,0.555,0.206,0.961,0.576,296.0,463.0
2015-04-17,Banjul,Gambia,-16.579,13.4549,[-17.079 12.9549 -16.079 13.9549],0.476,0.181,0.799,0.517,0.559,0.211,0.961,0.583,265.0,482.0
2015-04-18,Banjul,Gambia,-16.579,13.4549,[-17.079 12.9549 -16.079 13.9549],0.487,0.199,0.768,0.519,0.571,0.219,0.978,0.592,260.0,467.0
2015-04-19,Banjul,Gambia,-16.579,13.4549,[-17.079 12.9549 -16.079 13.9549],0.481,0.199,0.722,0.508,0.572,0.238,0.969,0.601,274.0,488.0
2015-04-20,Banjul,Gambia,-16.579,13.4549,[-17.079 12.9549 -16.079 13.9549],0.481,0.172,0.742,0.508,0.578,0.234,0.966,0.605,275.0,485.0
2015-04-21,Banjul,Gambia,-16.579,13.4549,[-17.079 12.9549 -16.079 13.9549],0.462,0.114,0.693,0.458,0.574,0.211,0.967,0.6,273.0,482.0
2015-04-22,Banjul,Gambia,-16.579,13.4549,[-17.079 12.9549 -16.079 13.9549],0.452,0.114,0.678,0.447,0.58,0.212,0.975,0.606,282.0,489.0
2015-04-23,Banjul,Gambia,-16.579,13.4549,[-17.079 12.9549 -16.079 13.9549],0.452,0.114,0.678,0.447,0.6,0.234,0.975,0.619,284.0,469.0
2015-04-24,Banjul,Gambia,-16.579,13.4549,[-17.079 12.9549 -16.079 13.9549],0.462,0.119,0.742,0.464,0.61,0.25,0.997,0.631,254.0,485.0
2015-04-25,Banjul,Gambia,-16.579,13.4549,[-17.079 12.9549 -16.079 13.9549],0.421,0.095,0.678,0.442,0.595,0.254,0.978,0.629,269.0,466.0
2015-04-26,Banjul,Gambia,-16.579,13.4549,[-17.079 12.9549 -16.079 13.9549],0.411,0.095,0.678,0.443,0.621,0.264,0.997,0.633,255.0,494.0
2015-04-27,Banjul,Gambia,-16.579,13.4549,[-17.079 12.9549 -16.079 13.9549],0.411,0.087,0.675,0.441,0.642,0.271,1.006,0.644,222.0,482.0
2015-04-28,Banjul,Gambia,-16.579,13.4549,[-17.079 12.9549 -16.079 13.9549],0.411,0.087,0.668,0.432,0.629,0.273,1.005,0.643,239.0,494.0
2015-04-29,Banjul,Gambia,-16.579,13.4549,[-17.079 12.9549 -16.079 13.9549],0.441,0.059,0.671,0.419,0.628,0.262,0.972,0.629,222.0,491.0
2015-04-30,Banjul,Gambia,-16.579,13.4549,[-17.079 12.9549 -16.079 13.9549],0.409,0.039,0.668,0.395,0.609,0.255,0.964,0.62,246.0,520.0
2015-05-01,Banjul,Gambia,-16.579,13.4549,[-17.079 12.9549 -16.079 13.9549],0.409,0.042,0.668,0.4,0.617,0.269,0.964,0.622,264.0,556.0
2015-05-02,Banjul,Gambia,-16.579,13.4549,[-17.079 12.9549 -16.079 13.9549],0.399,0.042,0.658,0.382,0.603,0.249,0.951,0.611,283.0,529.0
2015-05-03,Banjul,Gambia,-16.579,13.4549,[-17.079 12.9549 -16.079 13.9549],0.333,0.034,0.658,0.348,0.564,0.214,0.939,0.586,252.0,548.0
2015-05-04,Banjul,Gambia,-16.579,13.4549,[-17.079 12.9549 -16.079 13.9549],0.307,0.031,0.568,0.317,0.551,0.214,0.903,0.573,246.0,532.0
2015-05-05,Banjul,Gambia,-16.579,13.4549,[-17.079 12.9549 -16.079 13.9549],0.301,0.039,0.537,0.309,0.54,0.22,0.892,0.566,256.0,551.0
2015-05-06,Banjul,Gambia,-16.579,13.4549,[-17.079 12.9549 -16.079 13.9549],0.332,0.066,0.621,0.36,0.553,0.243,0.888,0.577,253.0,546.0
2015-05-07,Banjul,Gambia,-16.579,13.4549,[-17.079 12.9549 -16.079 13.9549],0.333,0.066,0.632,0.365,0.543,0.231,0.872,0.562,255.0,551.0
2015-05-08,Banjul,Gambia,-16.579,13.4549,[-17.079 12.9549 -16.079 13.9549],0.341,0.071,0.668,0.398,0.513,0.211,0.857,0.539,280.0,554.0
2015-05-09,Banjul,Gambia,-16.579,13.4549,[-17.079 12.9549 -16.079 13.9549],0.363,0.097,0.671,0.415,0.507,0.201,0.854,0.529,302.0,533.0
2015-05-10,Banjul,Gambia,-16.579,13.4549,[-17.079 12.9549 -16.079 13.9549],0.386,0.113,0.693,0.426,0.51,0.206,0.865,0.536,279.0,548.0
2015-05-11,Banjul,Gambia,-16.579,13.4549,[-17.079 12.9549 -16.079 13.9549],0.397,0.166,0.683,0.433,0.509,0.214,0.849,0.531,303.0,529.0
2015-05-12,Banjul,Gambia,-16.579,13.4549,[-17.079 12.9549 -16.079 13.9549],0.397,0.166,0.677,0.433,0.506,0.215,0.85,0.532,307.0,553.0
2015-05-13,Banjul,Gambia,-16.579,13.4549,[-17.079 12.9549 -16.079 13.9549],0.363,0.161,0.676,0.423,0.491,0.218,0.846,0.522,293.0,537.0
2015-05-14,Banjul,Gambia,-16.579,13.4549,[-17.079 12.9549 -16.079 13.9549],0.387,0.167,0.676,0.433,0.501,0.217,0.842,0.527,317.0,551.0
2015-05-15,Banjul,Gambia,-16.579,13.4549,[-17.079 12.9549 -16.079 13.9549],0.42,0.176,0.677,0.452,0.512,0.218,0.838,0.527,294.0,550.0
2015-05-16,Banjul,Gambia,-16.579,13.4549,[-17.079 12.9549 -16.079 13.9549],0.431,0.176,0.701,0.463,0.507,0.217,0.837,0.523,300.0,545.0
2015-05-17,Banjul,Gambia,-16.579,13.4549,[-17.079 12.9549 -16.079 13.9549],0.446,0.189,0.762,0.486,0.512,0.219,0.84,0.524,281.0,520.0
2015-05-18,Banjul,Gambia,-16.579,13.4549,[-17.079 12.9549 -16.079 13.9549],0.446,0.189,0.762,0.486,0.519,0.243,0.856,0.537,281.0,468.0
2015-05-19,Banjul,Gambia,-16.579,13.4549,[-17.079 12.9549 -16.079 13.9549],0.497,0.266,0.784,0.555,0.523,0.252,0.848,0.541,250.0,490.0
2015-05-20,Banjul,Gambia,-16.579,13.4549,[-17.079 12.9549 -16.079 13.9549],0.553,0.274,0.821,0.579,0.544,0.254,0.863,0.555,243.0,473.0
2015-05-21,Banjul,Gambia,-16.579,13.4549,[-17.079 12.9549 -16.079 13.9549],0.561,0.274,0.821,0.582,0.533,0.248,0.858,0.548,254.0,489.0
2015-05-22,Banjul,Gambia,-16.579,13.4549,[-17.079 12.9549 -16.079 13.9549],0.576,0.274,0.821,0.587,0.538,0.252,0.855,0.549,252.0,483.0
2015-05-23,Banjul,Gambia,-16.579,13.4549,[-17.079 12.9549 -16.079 13.9549],0.561,0.266,0.809,0.578,0.548,0.264,0.862,0.562,246.0,488.0
2015-05-24,Banjul,Gambia,-16.579,13.4549,[-17.079 12.9549 -16.079 13.9549],0.561,0.256,0.821,0.578,0.547,0.277,0.862,0.567,229.0,491.0
2015-05-25,Banjul,Gambia,-16.579,13.4549,[-17.079 12.9549 -16.079 13.9549],0.523,0.236,0.792,0.545,0.554,0.284,0.859,0.573,250.0,468.0
2015-05-26,Banjul,Gambia,-16.579,13.4549,[-17.079 12.9549 -16.079 13.9549],0.569,0.218,0.821,0.558,0.553,0.273,0.859,0.564,221.0,485.0
2015-05-27,Banjul,Gambia,-16.579,13.4549,[-17.079 12.9549 -16.079 13.9549],0.548,0.201,0.813,0.541,0.556,0.253,0.853,0.557,247.0,469.0
2015-05-28,Banjul,Gambia,-16.579,13.4549,[-17.079 12.9549 -16.079 13.9549],0.576,0.21,0.824,0.559,0.556,0.244,0.844,0.554,234.0,494.0
2015-05-29,Banjul,Gambia,-16.579,13.4549,[-17.079 12.9549 -16.079 13.9549],0.555,0.218,0.811,0.556,0.542,0.236,0.837,0.545,219.0,478.0
2015-05-30,Banjul,Gambia,-16.579,13.4549,[-17.079 12.9549 -16.079 13.9549],0.562,0.236,0.812,0.557,0.525,0.222,0.833,0.528,251.0,490.0
2015-05-31,Banjul,Gambia,-16.579,13.4549,[-17.079 12.9549 -16.079 13.9549],0.562,0.236,0.811,0.553,0.523,0.213,0.833,0.524,240.0,489.0
2015-06-01,Banjul,Gambia,-16.579,13.4549,[-17.079 12.9549 -16.079 13.9549],0.561,0.228,0.815,0.553,0.522,0.199,0.825,0.515,265.0,519.0
2015-06-02,Banjul,Gambia,-16.579,13.4549,[-17.079 12.9549 -16.079 13.9549],0.555,0.236,0.813,0.556,0.511,0.182,0.812,0.507,283.0,561.0
2015-06-03,Banjul,Gambia,-16.579,13.4549,[-17.079 12.9549 -16.079 13.9549],0.57,0.256,0.828,0.584,0.508,0.174,0.812,0.517,301.0,530.0
2015-06-04,Banjul,Gambia,-16.579,13.4549,[-17.079 12.9549 -16.079 13.9549],0.562,0.256,0.843,0.587,0.469,0.154,0.787,0.488,271.0,552.0
2015-06-05,Banjul,Gambia,-16.579,13.4549,[-17.079 12.9549 -16.079 13.9549],0.562,0.256,0.882,0.591,0.471,0.156,0.797,0.488,264.0,538.0
2015-06-06,Banjul,Gambia,-16.579,13.4549,[-17.079 12.9549 -16.079 13.9549],0.549,0.259,0.882,0.584,0.45,0.147,0.782,0.474,274.0,556.0
2015-06-07,Banjul,Gambia,-16.579,13.4549,[-17.079 12.9549 -16.079 13.9549],0.528,0.223,0.852,0.542,0.446,0.138,0.776,0.467,270.0,549.0
2015-06-08,Banjul,Gambia,-16.579,13.4549,[-17.079 12.9549 -16.079 13.9549],0.495,0.206,0.828,0.512,0.454,0.139,0.77,0.464,291.0,553.0
2015-06-09,Banjul,Gambia,-16.579,13.4549,[-17.079 12.9549 -16.079 13.9549],0.531,0.228,0.867,0.546,0.418,0.14,0.759,0.45,281.0,561.0
2015-06-10,Banjul,Gambia,-16.579,13.4549,[-17.079 12.9549 -16.079 13.9549],0.528,0.201,0.852,0.533,0.447,0.142,0.778,0.47,299.0,538.0
2015-06-11,Banjul,Gambia,-16.579,13.4549,[-17.079 12.9549 -16.079 13.9549],0.531,0.228,0.858,0.545,0.433,0.133,0.774,0.465,269.0,552.0
2015-06-12,Banjul,Gambia,-16.579,13.4549,[-17.079 12.9549 -16.079 13.9549],0.549,0.255,0.872,0.548,0.445,0.155,0.795,0.479,294.0,535.0
2015-06-13,Banjul,Gambia,-16.579,13.4549,[-17.079 12.9549 -16.079 13.9549],0.556,0.203,0.922,0.546,0.466,0.153,0.82,0.494,283.0,563.0
2015-06-14,Banjul,Gambia,-16.579,13.4549,[-17.079 12.9549 -16.079 13.9549],0.601,0.228,0.944,0.581,0.501,0.17,0.853,0.521,268.0,548.0
2015-06-15,Banjul,Gambia,-16.579,13.4549,[-17.079 12.9549 -16.079 13.9549],0.582,0.247,0.944,0.584,0.492,0.165,0.832,0.512,288.0,558.0
2015-06-16,Banjul,Gambia,-16.579,13.4549,[-17.079 12.9549 -16.079 13.9549],0.604,0.255,0.955,0.593,0.503,0.182,0.869,0.528,277.0,554.0
2015-06-17,Banjul,Gambia,-16.579,13.4549,[-17.079 12.9549 -16.079 13.9549],0.567,0.247,0.952,0.581,0.517,0.199,0.895,0.547,285.0,542.0
2015-06-18,Banjul,Gambia,-16.579,13.4549,[-17.079 12.9549 -16.079 13.9549],0.526,0.186,0.924,0.551,0.534,0.199,0.897,0.55,267.0,519.0
2015-06-19,Banjul,Gambia,-16.579,13.4549,[-17.079 12.9549 -16.079 13.9549],0.526,0.186,0.924,0.551,0.545,0.208,0.905,0.56,267.0,465.0
2015-06-20,Banjul,Gambia,-16.579,13.4549,[-17.079 12.9549 -16.079 13.9549],0.514,0.166,0.869,0.512,0.556,0.209,0.909,0.564,237.0,485.0
2015-06-21,Banjul,Gambia,-16.579,13.4549,[-17.079 12.9549 -16.079 13.9549],0.549,0.186,0.844,0.515,0.561,0.222,0.912,0.574,230.0,470.0
2015-06-22,Banjul,Gambia,-16.579,13.4549,[-17.079 12.9549 -16.079 13.9549],0.567,0.213,0.872,0.536,0.554,0.223,0.893,0.567,250.0,487.0
2015-06-23,Banjul,Gambia,-16.579,13.4549,[-17.079 12.9549 -16.079 13.9549],0.601,0.239,0.909,0.574,0.573,0.223,0.916,0.579,249.0,480.0
2015-06-24,Banjul,Gambia,-16.579,13.4549,[-17.079 12.9549 -16.079 13.9549],0.607,0.247,0.939,0.634,0.582,0.243,0.93,0.601,263.0,480.0